This is the latest recevied weather packets stored in our database for station/object W6MAF. If no packets are shown the sender has not sent any weather packets the latest 10 day(s).
| Time | Temp. | Humidity | Pressure | Rain* | Wind** | Luminosity | Snow |
|---|---|---|---|---|---|---|---|
| 1777262565 | 6.67° C | 74% | - | 0 mm | 5.81 m/s, 205° | - | - |
| 1777262267 | 6.67° C | 74% | - | 0 mm | 5.81 m/s, 200° | - | - |
| 1777261969 | 6.67° C | 75% | - | 0 mm | 6.71 m/s, 200° | - | - |
| 1777261672 | 6.67° C | 74% | - | 0 mm | 7.15 m/s, 212° | - | - |
| 1777261371 | 6.67° C | 73% | - | 0 mm | 8.05 m/s, 186° | - | - |
| 1777261074 | 6.67° C | - | - | 0 mm | 8.49 m/s, 203° | - | - |
| 1777261073 | 6.67° C | 72% | - | 0 mm | 8.49 m/s, 203° | - | - |
| 1777260776 | 6.67° C | 69% | - | 0 mm | 5.81 m/s, 222° | - | - |
| 1777260478 | 6.67° C | 69% | - | 0 mm | 7.15 m/s, 201° | - | - |
| 1777260180 | 6.67° C | 68% | - | 0 mm | 6.26 m/s, 210° | - | - |
| 1777259883 | 6.67° C | 68% | - | 0 mm | 7.15 m/s, 197° | - | - |
| 1777259582 | 6.67° C | 67% | - | 0 mm | 5.81 m/s, 211° | - | - |
| 1777259284 | 6.67° C | 66% | - | 0 mm | 8.49 m/s, 225° | - | - |
| 1777258987 | 6.67° C | 64% | - | 0 mm | 5.81 m/s, 224° | - | - |
| 1777258689 | 7.22° C | 64% | - | 0 mm | 5.81 m/s, 218° | - | - |
| 1777258391 | 7.22° C | 63% | - | 0 mm | 5.81 m/s, 217° | - | - |
| 1777258094 | 7.22° C | 63% | - | 0 mm | 5.81 m/s, 205° | - | - |
| 1777257793 | 7.22° C | 61% | - | 0 mm | 6.26 m/s, 214° | - | - |
| 1777257495 | 7.22° C | 60% | - | 0 mm | 5.81 m/s, 203° | - | - |
| 1777257198 | 7.22° C | 59% | - | 0 mm | 4.92 m/s, 198° | - | - |
| 1777256932 | 7.78° C | 58% | - | 0 mm | 7.6 m/s, 197° | - | - |
| 1777256900 | 7.78° C | 58% | - | 0 mm | 7.6 m/s, 197° | - | - |
| 1777256644 | 7.78° C | 57% | - | 0 mm | 8.49 m/s, 205° | - | - |
| 1777256602 | 7.78° C | 57% | - | 0 mm | 8.49 m/s, 205° | - | - |
| 1777256305 | 7.78° C | 56% | - | 0 mm | 6.71 m/s, 204° | - | - |
* Rain latest hour (hover to see other rain measurements)
** Current wind speed in m/s (hover to see current wind gust speed)